Location: Lac Lasalle
(46.0398°N, 74.1576°W)
Time: 14:21:03
(UTC-04:00)

Envisat - Visible Passes

Search period start: 23 March 2019 00:00
Search period end: 02 April 2019 00:00
Orbit: 764 x 766 km, 98.2° (Epoch: 22 March)

Date Brightness Start Highest point End Pass type
(mag) Time Alt. Az. Time Alt. Az. Time Alt. Az.
23 Mar 5.7 20:44:28 10° SW 20:48:06 20° W 20:51:45 10° NW visible
24 Mar 4.5 20:06:17 10° SSW 20:11:03 40° W 20:15:51 10° NNW visible
25 Mar 6.2 21:12:30 10° WSW 21:13:59 11° W 21:15:28 10° WNW visible
26 Mar 5.4 20:32:41 10° SSW 20:36:46 24° W 20:40:53 10° NW visible
27 Mar 4.0 19:54:51 10° S 19:59:47 50° W 20:04:44 10° NNW visible
28 Mar 5.9 20:59:55 10° WSW 21:02:36 14° W 21:05:19 10° NW visible
29 Mar 5.1 20:21:02 10° SSW 20:25:28 30° W 20:29:55 10° NNW visible
30 Mar 3.6 19:43:30 10° S 19:48:32 63° W 19:53:35 10° NNW visible
31 Mar 5.8 20:47:51 10° SW 20:51:15 18° W 20:54:41 10° NW visible
01 Apr 4.7 20:09:29 10° SSW 20:14:10 37° W 20:18:53 10° NNW visible
